| time (UTC) | temp C | wind direction | speed KPH | gust KPH | rain 1hr cm | rain 24hr cm | rain mn cm | humidity % | barometer mb |
| 20260506211530 | 17 | 269 | 0.0 | 0.0 | 0.00 | 0.53 | 0.53 | 87 | 1004.9 |
| 20260506210031 | 17 | 277 | 0.0 | 0.0 | 0.00 | 0.53 | 0.53 | 87 | 1005.0 |
| 20260506204558 | 17 | 261 | 0.0 | 9.7 | 0.00 | 0.53 | 0.53 | 87 | 1004.9 |
| 20260506203057 | 17 | 267 | 0.0 | 9.7 | 0.00 | 0.53 | 0.53 | 87 | 1004.9 |
| 20260506201553 | 17 | 273 | 0.0 | 8.0 | 0.00 | 0.53 | 0.53 | 87 | 1004.8 |
| 20260506200052 | 17 | 241 | 0.0 | 14.5 | 0.00 | 0.53 | 0.53 | 87 | 1004.8 |
| 20260506194555 | 17 | 252 | 0.0 | 11.3 | 0.00 | 0.53 | 0.53 | 88 | 1004.9 |
| 20260506193057 | 16 | 234 | 0.0 | 11.3 | 0.00 | 0.53 | 0.53 | 88 | 1005.0 |
| 20260506191546 | 16 | 255 | 6.4 | 20.9 | 0.00 | 0.53 | 0.53 | 89 | 1005.1 |
| 20260506190044 | 16 | 232 | 0.0 | 16.1 | 0.00 | 0.53 | 0.53 | 89 | 1005.3 |
| 20260506184543 | 16 | 240 | 0.0 | 24.1 | 0.03 | 0.53 | 0.53 | 89 | 1005.5 |
| 20260506183042 | 16 | 229 | 0.0 | 19.3 | 0.03 | 0.53 | 0.53 | 90 | 1005.7 |
| 20260506181540 | 16 | 202 | 0.0 | 12.9 | 0.03 | 0.53 | 0.53 | 90 | 1005.8 |
| 20260506180046 | 16 | 238 | 3.2 | 19.3 | 0.05 | 0.53 | 0.53 | 89 | 1005.8 |
| 20260506174541 | 16 | 224 | 1.6 | 24.1 | 0.10 | 0.51 | 0.51 | 89 | 1005.8 |
| 20260506173035 | 16 | 214 | 6.4 | 17.7 | 0.15 | 0.51 | 0.51 | 89 | 1005.8 |
| 20260506171537 | 16 | 247 | 1.6 | 19.3 | 0.15 | 0.51 | 0.51 | 89 | 1005.8 |
| 20260506170032 | 16 | 205 | 4.8 | 17.7 | 0.15 | 0.48 | 0.48 | 89 | 1006.0 |
| 20260506164530 | 16 | 199 | 0.0 | 11.3 | 0.10 | 0.41 | 0.41 | 88 | 1006.1 |
| 20260506163049 | 16 | 217 | 1.6 | 11.3 | 0.08 | 0.36 | 0.36 | 88 | 1006.2 |
| 20260506161527 | 16 | 195 | 1.6 | 17.7 | 0.13 | 0.36 | 0.36 | 88 | 1005.9 |
| 20260506160024 | 16 | 232 | 8.0 | 19.3 | 0.18 | 0.33 | 0.33 | 88 | 1005.7 |
| 20260506154521 | 16 | 212 | 8.0 | 19.3 | 0.15 | 0.30 | 0.30 | 88 | 1006.3 |
| 20260506153020 | 16 | 180 | 1.6 | 14.5 | 0.15 | 0.28 | 0.28 | 88 | 1006.8 |
| 20260506151518 | 16 | 203 | 4.8 | 22.5 | 0.13 | 0.23 | 0.23 | 87 | 1006.9 |
| 20260506150012 | 16 | 196 | 8.0 | 20.9 | 0.08 | 0.15 | 0.15 | 87 | 1006.9 |
| 20260506144510 | 17 | 174 | 8.0 | 24.1 | 0.08 | 0.15 | 0.15 | 87 | 1006.7 |
| 20260506143008 | 16 | 205 | 0.0 | 19.3 | 0.08 | 0.13 | 0.13 | 87 | 1006.5 |
| 20260506141507 | 16 | 205 | 0.0 | 16.1 | 0.05 | 0.10 | 0.10 | 86 | 1006.8 |
| 20260506140006 | 16 | 206 | 4.8 | 11.3 | 0.05 | 0.08 | 0.08 | 85 | 1006.8 |
| 20260506134505 | 17 | 242 | 0.0 | 9.7 | 0.05 | 0.08 | 0.08 | 85 | 1006.6 |
| 20260506133001 | 17 | 242 | 1.6 | 14.5 | 0.05 | 0.05 | 0.05 | 85 | 1006.9 |
| 20260506131601 | 17 | 219 | 0.0 | 8.0 | 0.05 | 0.05 | 0.05 | 83 | 1007.1 |
| 20260506130100 | 17 | 250 | 4.8 | 16.1 | 0.03 | 0.03 | 0.03 | 82 | 1007.1 |
| 20260506124556 | 17 | 193 | 1.6 | 11.3 | 0.03 | 0.03 | 0.03 | 82 | 1007.1 |
| 20260506123052 | 17 | 219 | 3.2 | 14.5 | 0.00 | 0.00 | 0.00 | 80 | 1007.1 |
| 20260506121550 | 17 | 209 | 4.8 | 20.9 | 0.00 | 0.00 | 0.00 | 79 | 1006.9 |
| 20260506120056 | 18 | 240 | 3.2 | 14.5 | 0.00 | 0.00 | 0.00 | 78 | 1006.8 |
| 20260506114556 | 18 | 273 | 0.0 | 14.5 | 0.00 | 0.00 | 0.00 | 77 | 1006.8 |
| 20260506113042 | 18 | 171 | 3.2 | 19.3 | 0.00 | 0.00 | 0.00 | 76 | 1006.7 |
| 20260506111543 | 18 | 198 | 1.6 | 17.7 | 0.00 | 0.00 | 0.00 | 76 | 1006.6 |
| 20260506110039 | 18 | 180 | 6.4 | 20.9 | 0.00 | 0.00 | 0.00 | 75 | 1006.6 |
| 20260506104538 | 18 | 227 | 1.6 | 19.3 | 0.00 | 0.00 | 0.00 | 75 | 1006.2 |
| 20260506103034 | 18 | 227 | 1.6 | 16.1 | 0.00 | 0.00 | 0.00 | 75 | 1006.3 |
| 20260506101534 | 18 | 187 | 6.4 | 14.5 | 0.00 | 0.00 | 0.00 | 75 | 1006.1 |
| 20260506100030 | 18 | 209 | 0.0 | 9.7 | 0.00 | 0.00 | 0.00 | 74 | 1006.2 |
| 20260506094529 | 18 | 198 | 0.0 | 9.7 | 0.00 | 0.00 | 0.00 | 73 | 1006.3 |
| 20260506093058 | 18 | 215 | 0.0 | 16.1 | 0.00 | 0.00 | 0.00 | 72 | 1006.3 |
| 20260506091557 | 18 | 273 | 1.6 | 11.3 | 0.00 | 0.00 | 0.00 | 72 | 1006.2 |
| 20260506090053 | 18 | 224 | 0.0 | 6.4 | 0.00 | 0.03 | 0.00 | 71 | 1006.2 |
| 20260506084551 | 19 | 198 | 0.0 | 9.7 | 0.00 | 0.03 | 0.00 | 70 | 1006.3 |
| 20260506083054 | 19 | 178 | 1.6 | 16.1 | 0.00 | 0.03 | 0.00 | 70 | 1006.4 |
| 20260506081548 | 19 | 286 | 0.0 | 11.3 | 0.00 | 0.03 | 0.00 | 69 | 1006.3 |
| 20260506073010 | 20 | 221 | 0.0 | 11.3 | 0.00 | 0.03 | 0.00 | 65 | 1006.4 |
| 20260506071508 | 20 | 232 | 0.0 | 16.1 | 0.00 | 0.03 | 0.00 | 64 | 1006.4 |
| 20260506061559 | 20 | 196 | 3.2 | 25.7 | 0.00 | 0.03 | 0.00 | 60 | 1006.8 |
| 20260506044515 | 21 | 190 | 8.0 | 19.3 | 0.00 | 0.03 | 0.03 | 58 | 1007.3 |
| 20260506043015 | 21 | 211 | 6.4 | 24.1 | 0.00 | 0.03 | 0.03 | 57 | 1007.3 |
| 20260506041518 | 21 | 190 | 9.7 | 19.3 | 0.00 | 0.03 | 0.03 | 56 | 1007.5 |
| 20260506040037 | 21 | 192 | 6.4 | 19.3 | 0.00 | 0.03 | 0.03 | 56 | 1007.3 |
| 20260506034548 | 21 | 174 | 9.7 | 19.3 | 0.00 | 0.03 | 0.03 | 56 | 1007.4 |
| 20260506033042 | 21 | 202 | 3.2 | 22.5 | 0.00 | 0.03 | 0.03 | 55 | 1007.4 |
| 20260506031554 | 21 | 180 | 8.0 | 20.9 | 0.00 | 0.03 | 0.03 | 55 | 1007.3 |
| 20260506030039 | 21 | 202 | 8.0 | 19.3 | 0.00 | 0.03 | 0.03 | 54 | 1007.3 |
| 20260506024540 | 21 | 193 | 8.0 | 24.1 | 0.00 | 0.03 | 0.03 | 53 | 1007.2 |
| 20260506023038 | 22 | 188 | 8.0 | 22.5 | 0.00 | 0.03 | 0.03 | 52 | 1007.3 |
| 20260506021535 | 22 | 166 | 6.4 | 17.7 | 0.00 | 0.03 | 0.03 | 51 | 1007.5 |
| 20260506020035 | 22 | 197 | 6.4 | 19.3 | 0.00 | 0.03 | 0.03 | 50 | 1007.5 |
| 20260506014535 | 22 | 177 | 1.6 | 20.9 | 0.00 | 0.03 | 0.03 | 50 | 1007.3 |
| 20260506013036 | 22 | 213 | 4.8 | 17.7 | 0.00 | 0.03 | 0.03 | 48 | 1007.1 |
| 20260506011536 | 23 | 180 | 9.7 | 24.1 | 0.00 | 0.03 | 0.03 | 48 | 1006.9 |
| 20260506010031 | 23 | 215 | 4.8 | 14.5 | 0.00 | 0.03 | 0.03 | 49 | 1006.8 |
| 20260506004530 | 23 | 188 | 6.4 | 16.1 | 0.00 | 0.03 | 0.03 | 47 | 1006.6 |
| 20260506003030 | 23 | 182 | 0.0 | 12.9 | 0.00 | 0.03 | 0.03 | 47 | 1006.7 |
| 20260506001559 | 23 | 196 | 6.4 | 19.3 | 0.00 | 0.03 | 0.03 | 46 | 1006.4 |
| 20260505234604 | 24 | 184 | 9.7 | 24.1 | 0.00 | 0.03 | 0.03 | 46 | 1006.3 |
| 20260505233109 | 24 | 211 | 4.8 | 25.7 | 0.00 | 0.03 | 0.03 | 45 | 1006.1 |
| 20260505231559 | 25 | 200 | 6.4 | 22.5 | 0.00 | 0.03 | 0.03 | 44 | 1006.1 |
| 20260505230055 | 25 | 192 | 9.7 | 22.5 | 0.00 | 0.03 | 0.03 | 42 | 1005.9 |
| 20260505224553 | 25 | 225 | 9.7 | 29.0 | 0.00 | 0.03 | 0.03 | 41 | 1006.0 |
| 20260505223055 | 25 | 202 | 3.2 | 24.1 | 0.00 | 0.03 | 0.03 | 41 | 1005.8 |
| 20260505221552 | 26 | 200 | 8.0 | 29.0 | 0.00 | 0.03 | 0.03 | 40 | 1005.8 |
| 20260505220050 | 26 | 190 | 12.9 | 25.7 | 0.00 | 0.03 | 0.03 | 40 | 1005.7 |
| 20260505214522 | 26 | 201 | 11.3 | 37.0 | 0.00 | 0.03 | 0.03 | 39 | 1005.7 |
| 20260505213017 | 26 | 200 | 11.3 | 30.6 | 0.00 | 0.03 | 0.03 | 39 | 1005.8 |